Regional Weather Roundup
Issued by NWS

Home | Current Version | Previous Version | Text Only | Print | Product List | Glossary Off
Versions: 1 2 3 4 5 6 7 8 9 10 11 12 13 14 15 16 17 18 19 20 21 22 23 24 25 26 27 28 29 30 31 32 33 34 35 36 37 38 39 40 41 42 43 44 45 46 47 48 49 50

000
ASUS43 KOAX 111210
RWRNE

WEATHER ROUNDUP FOR NEBRASKA
NATIONAL WEATHER SERVICE OMAHA NE
600 AM CST SUN DEC 11 2016

NOTES: SATELLITE DATA IS BEING USED TO AUGMENT CLOUD COVER ABOVE
       12000 FEET.
       "FAIR" INDICATES FEW OR NO CLOUDS BELOW 12,000 FEET WITH NO
       SIGNIFICANT WEATHER AND/OR OBSTRUCTIONS TO VISIBILITY.

  * THESE STATIONS DO NOT REPORT WEATHER SUCH AS RAIN...SNOW OR FOG.

NEZ001>004-019>022-054>056-111300-
NEBRASKA PANHANDLE

CITY           SKY/WX    TMP DP  RH WIND       PRES   REMARKS
SCOTTSBLUFF    CLOUDY    32  20  61 NW12      29.81R WCI  23
6HR MIN TEMP:  30; 6HR MAX TEMP:  39;

ALLIANCE       CLOUDY    23  18  81 NW6       29.81R WCI  16
6HR MIN TEMP:  12; 6HR MAX TEMP:  23;

CHADRON        CLOUDY    14  10  84 S3        29.85R
6HR MIN TEMP:   7; 6HR MAX TEMP:  14;

KIMBALL        CLOUDY    32  25  74 NW16G22   29.79R WCI  21
SIDNEY         CLOUDY    32  23  69 NW12      29.79R WCI  23
6HR MIN TEMP:  32; 6HR MAX TEMP:  44;

$$

NEZ057>060-069>072-079>082-111300-
SOUTHWEST NEBRASKA

CITY           SKY/WX    TMP DP  RH WIND       PRES   REMARKS
NORTH PLATTE   CLOUDY    26  17  68 N13G20    29.76R WCI  15
6HR MIN TEMP:  19; 6HR MAX TEMP:  30;

IMPERIAL       CLOUDY    31  24  75 N18       29.77R WCI  19
6HR MIN TEMP:  25; 6HR MAX TEMP:  37;

LEXINGTON      CLOUDY    23  16  74 N16       29.77R WCI  10
MCCOOK         CLOUDY    28  22  78 N9        29.76R WCI  19
6HR MIN TEMP:  19; 6HR MAX TEMP:  28;

OGALLALA       CLOUDY    31  23  71 N23       29.76S WCI  18
$$

NEZ005>010-023>029-035>040-094-111300-
NORTH CENTRAL NEBRASKA

CITY           SKY/WX    TMP DP  RH WIND       PRES   REMARKS
VALENTINE      CLOUDY    11   6  81 NW9       29.86R WCI  -2
6HR MIN TEMP:  11; 6HR MAX TEMP:  14; 6HR PCP: TRACE;

AINSWORTH      CLOUDY    12  10  93 NW17G24   29.83R WCI  -5
BROKEN BOW     CLOUDY    18  15  88 N24G30    29.76F WCI   0
6HR MIN TEMP:  18; 6HR MAX TEMP:  31;

O`NEILL        CLOUDY    24  22  93 NW18G26   29.79S WCI   9
ORD            CLOUDY    22  17  81 NW16      29.76S WCI   8
6HR MIN TEMP:  16; 6HR MAX TEMP:  26;

THEDFORD       CLOUDY    16  12  84 NW12G22   29.82R WCI   3
$$

NEZ041-046>049-061>064-073>077-083>087-111300-
SOUTH CENTRAL NEBRASKA

CITY           SKY/WX    TMP DP  RH WIND       PRES   REMARKS
GRAND ISLAND   CLOUDY    24  21  88 NW9       29.75R WCI  14
6HR MIN TEMP:  21; 6HR MAX TEMP:  30;

AURORA         CLOUDY    25  21  86 NW5       29.73R WCI  19
HASTINGS       CLOUDY    23  20  88 NW7       29.74R WCI  15
6HR MIN TEMP:  22; 6HR MAX TEMP:  30;

HEBRON         CLOUDY    24  22  92 CALM      29.73R
HOLDREGE       CLOUDY    26  22  82 N14G25    29.74R WCI  15
KEARNEY *      CLOUDY    25  16  68 N24G32    29.74R WCI   9
YORK           CLOUDY    25  23  93 CALM      29.74R
$$

NEZ011>018-030>034-042>045-111300-
NORTHEAST NEBRASKA

CITY           SKY/WX    TMP DP  RH WIND       PRES   REMARKS
NORFOLK        CLOUDY    23  19  85 W5        29.77R WCI  17
6HR MIN TEMP:  18; 6HR MAX TEMP:  27;

ALBION         CLOUDY    22  19  89 NW3       29.74R
BLAIR          CLOUDY    31  23  73 E5        29.74F WCI  26
FREMONT        CLOUDY    29  23  77 SE3       29.75F
TEKAMAH        CLOUDY    25  20  81 E3        29.76F
6HR MIN TEMP:  22; 6HR MAX TEMP:  29;

WAYNE          CLOUDY    24  21  90 CALM      29.75F
$$

NEZ050>053-065>068-078-088>093-111300-
SOUTHEAST NEBRASKA

CITY           SKY/WX    TMP DP  RH WIND       PRES   REMARKS
LINCOLN        CLOUDY    28  22  78 NW5       29.77S WCI  23
6HR MIN TEMP:  27; 6HR MAX TEMP:  32;

OMAHA EPPLEY   CLOUDY    31  22  69 CALM      29.76F
6HR MIN TEMP:  30; 6HR MAX TEMP:  33;

BEATRICE       CLOUDY    35  28  76 CALM      29.74R
FALLS CITY     CLOUDY    38  28  67 E3        29.74F
6HR MIN TEMP:  34; 6HR MAX TEMP:  38;

NEBRASKA CITY  CLOUDY    35  22  59 CALM      29.75S
PLATTSMOUTH    CLOUDY    34  22  61 SE6       29.75F WCI  29
$$

NEZ044-045-051>053-067-111300-
OMAHA AREA

CITY           SKY/WX    TMP DP  RH WIND       PRES   REMARKS
OMAHA EPPLEY   CLOUDY    31  22  69 CALM      29.76F
6HR MIN TEMP:  30; 6HR MAX TEMP:  33;

BLAIR          CLOUDY    31  23  73 E5        29.74F WCI  26
FREMONT        CLOUDY    29  23  77 SE3       29.75F
MILLARD        CLOUDY    32  25  74 CALM      29.76F
OFFUTT AFB     CLOUDY    33  25  70 E6        29.75F WCI  28
PLATTSMOUTH    CLOUDY    34  22  61 SE6       29.75F WCI  29
WAHOO          FAIR      28  22  81 E3        29.75S
$$



USA.gov is the U.S. government's official web portal to all federal, state and local government web resources and services.